Explore Kentucky Lake

Lake Conditions
Facebook Twitter Instagram Google YouTube Contact Us About Us
Switch Mobile/Desktop

Previous Kentucky Lake Levels

Home | Lake Conditions | Previous Kentucky Lake Levels

Kentucky Lake Stages Over Last 48 Hours

The following table shows the previous 48 hours for Kentucky Lake.

Date/Time Lake River Discharge (cfs)
1/20/2019 11 PM CST 354.54' 320.19' 184,063
1/20/2019 10 PM CST 354.52' 320.19' 183,973
1/20/2019 9 PM CST 354.51' 320.01' 183,933
1/20/2019 8 PM CST 354.49' 320.01' 183,823
1/20/2019 7 PM CST 354.47' 319.84' 178,351
1/20/2019 6 PM CST 354.49' 319.48' 163,586
1/20/2019 5 PM CST 354.51' 318.94' 162,853
1/20/2019 4 PM CST 354.52' 318.38' 162,771
1/20/2019 3 PM CST 354.47' 318.31' 162,046
1/20/2019 2 PM CST 354.42' 318.34' 161,357
1/20/2019 1 PM CST 354.35' 318.30' 160,631
1/20/2019 12 PM CST 354.30' 318.20' 159,936
1/20/2019 11 AM CST 354.25' 318.14' 159,060
1/20/2019 10 AM CST 354.17' 318.10' 158,182
1/20/2019 9 AM CST 354.09' 317.92' 157,186
1/20/2019 8 AM CST 354.01' 318.03' 155,740
1/20/2019 7 AM CST 353.89' 317.94' 154,919
1/20/2019 6 AM CST 353.84' 317.92' 154,135
1/20/2019 5 AM CST 353.77' 317.85' 152,827
1/20/2019 4 AM CST 353.64' 317.81' 151,184
1/20/2019 3 AM CST 353.53' 317.78' 150,278
1/20/2019 2 AM CST 353.53' 317.75' 149,878
1/20/2019 1 AM CST 353.44' 317.74' 149,316
1/20/2019 12 AM CST 353.45' 317.77' 149,293
1/19/2019 11 PM CST 353.43' 317.71' 149,462
1/19/2019 10 PM CST 353.47' 317.67' 149,796
1/19/2019 9 PM CST 353.47' 317.61' 149,720
1/19/2019 8 PM CST 353.44' 317.69' 148,190
1/19/2019 7 PM CST 353.26' 317.54' 146,860
1/19/2019 6 PM CST 353.25' 317.57' 147,773
1/19/2019 5 PM CST 353.39' 317.74' 149,895
1/19/2019 4 PM CST 353.52' 317.44' 151,310
1/19/2019 3 PM CST 353.57' 317.46' 153,008
1/19/2019 2 PM CST 353.76' 317.49' 154,383
1/19/2019 1 PM CST 353.75' 317.40' 154,594
1/19/2019 12 PM CST 353.77' 317.37' 155,481
1/19/2019 11 AM CST 353.90' 317.33' 156,706
1/19/2019 10 AM CST 353.92' 317.36' 156,545
1/19/2019 9 AM CST 353.88' 317.28' 156,497
1/19/2019 8 AM CST 353.89' 317.44' 156,718
1/19/2019 7 AM CST 353.92' 317.18' 157,270
1/19/2019 6 AM CST 353.96' 317.32' 158,286
1/19/2019 5 AM CST 354.07' 317.29' 158,763
1/19/2019 4 AM CST 353.98' 317.26' 158,140
1/19/2019 3 AM CST 353.97' 317.26' 157,820
1/19/2019 2 AM CST 353.92' 317.28' 157,135
1/19/2019 1 AM CST 353.88' 317.31' 156,581

Bison
Photo by Jill Asher

The Elk and Bison Prairie in Land Between The Lakes is one of the most popular attractions for visitors year-round.